Zurück zum Katalog

SCOUT G-1 DEB

AktivPO
NORAD 18525·DEBRIS·🇺🇸 United States

Gestartet Nov 14, 1986 von Vandenberg Space Force Base

Loading…

Nächste Überflüge (nächste 24 Stunden)

TLE

AktuellSource: Space-Track

Epoche: Sep 14, 2026, 04:33 UTC

1 18525U 86088D   26257.18970705  .00000163  00000-0  13196-3 0  9993
2 18525  89.9219 342.1699 0005904 146.5093 242.0371 13.86427449 10582

Verfolge SCOUT G-1 DEB in Echtzeit mit AllMySat

Download on the App Store